Location: Narrabri
(30.3170°S, 149.7830°E)
Time: 08:26:28
(UTC+11:00)

OTV 5 (USA 277) - Visible Passes

Search period start: 22 February 2018 00:00
Search period end: 04 March 2018 00:00
Orbit: 404 x 417 km, 43.0° (Epoch: 07 September)

Date Brightness Start Highest point End Pass type
(mag) Time Alt. Az. Time Alt. Az. Time Alt. Az.
23 Feb ? 21:25:58 10° SSW 21:27:35 13° SSE 21:27:49 13° SSE visible
24 Feb ? 20:35:15 10° S 20:36:16 11° S 20:37:16 10° SSE visible
24 Feb ? 22:11:22 10° SW 22:11:42 12° SSW 22:11:42 12° SSW visible
25 Feb ? 21:20:31 10° SSW 21:22:52 20° SSE 21:22:52 20° SSE visible
26 Feb ? 20:29:43 10° SSW 20:31:55 16° SSE 20:34:05 10° ESE visible
26 Feb ? 22:06:15 10° SW 22:06:49 14° SW 22:06:49 14° SW visible
27 Feb ? 21:15:16 10° SW 21:18:05 40° S 21:18:05 40° S visible
28 Feb ? 20:24:22 10° SW 20:27:24 28° SSE 20:29:24 17° ESE visible
28 Feb ? 22:01:37 10° WSW 22:02:09 13° WSW 22:02:09 13° WSW visible
01 Mar ? 21:10:22 10° WSW 21:13:33 61° WNW 21:13:33 61° WNW visible
02 Mar ? 20:19:16 10° SW 20:22:41 74° SSE 20:25:02 19° ENE visible
03 Mar ? 21:06:10 10° W 21:08:43 20° NW 21:09:23 19° NNW visible
